Home   Weather   Denare Beach   Past weeks

Flag for Canada Past Weather in Denare Beach, Saskatchewan, Canada — Yesterday and Last 2 Weeks

Now
19 °F

Passing clouds.


Feels Like: 19 °F
Forecast: 21 / 30 °F
Wind: 2 mph from South

Location: The Pas

Current Time: Jan 19, 2017 at 9:09:03 am

Latest Report: Jan 19, 2017 at 8:00 am


Visibility: 15 mi

Pressure: 29.36 "Hg

Humidity: 93%

Dew Point: 18 °F

Location of Denare BeachLocation

Past Weather in Denare Beach — Graph

°F

Denare Beach Temperature Yesterday

Maximum temperature yesterday: 37 °F (at 4:00 pm)
Minimum temperature yesterday: 23 °F (at 7:43 am)
Average temperature yesterday: 31 °F

High & Low Weather Summary for the Past Weeks

 TemperatureHumidityPressure
High39 °F (Jan 17, 2:00 pm)93% (Jan 18, 11:00 pm)30.52 "Hg (Jan 18, 11:00 pm)
Low-29 °F (Jan 12, 10:00 pm)51% (Jan 7, 2:00 pm)29.30 "Hg (Jan 18, 11:00 pm)
Average3 °F71%30.00 "Hg
* Reported Jan 4 7:00 am — Jan 19 7:00 am, Denare Beach, Weather by CustomWeather, © 2017

Note: Actual official high and low records may vary slightly from our data, if they occured in-between our weather recording intervals... More about our weather records

Advertising

Denare Beach Weather History for the Previous 24 Hours

Scroll right to see more
 ConditionsComfort  
Time TempWeatherWind HumidityBarometerVisibility
7:00 am
Thu, Jan 19
28 °FPassing clouds.2 mph93%29.34 "Hg15 mi
6:00 am25 °FPassing clouds.6 mph93%29.32 "Hg15 mi
5:00 am25 °FPassing clouds.No wind93%29.31 "Hg15 mi
4:00 am25 °FPassing clouds.3 mph93%29.32 "Hg15 mi
3:00 am27 °FPassing clouds.6 mph93%29.31 "Hg15 mi
2:00 am25 °FPassing clouds.6 mph86%29.32 "Hg15 mi
1:00 am27 °FPassing clouds.8 mph93%29.30 "Hg15 mi
12:00 am28 °FPassing clouds.8 mph86%29.31 "Hg15 mi
11:00 pm
Wed, Jan 18
27 °FClear.10 mph93%29.30 "Hg15 mi
10:00 pm28 °FClear.9 mph86%29.32 "Hg15 mi
9:00 pm28 °FClear.12 mph86%29.33 "Hg15 mi
8:00 pm30 °FPassing clouds.9 mph86%29.35 "Hg15 mi
7:00 pm34 °FPassing clouds.12 mph81%29.37 "Hg15 mi
6:00 pm36 °FPassing clouds.13 mph81%29.39 "Hg15 mi
5:00 pm36 °FPassing clouds.15 mph75%29.38 "Hg15 mi
4:10 pm37 °FMostly cloudy.14 mph70%29.39 "Hg15 mi
4:00 pm37 °FMostly cloudy.12 mph70%29.39 "Hg15 mi
3:00 pm36 °FMostly cloudy.14 mph75%29.41 "Hg15 mi
2:00 pm34 °FMostly cloudy.13 mph81%29.44 "Hg15 mi
1:00 pm32 °FMostly cloudy.12 mph80%29.44 "Hg15 mi
12:00 pm30 °FPartly sunny.10 mph80%29.48 "Hg15 mi
11:00 am28 °FCloudy.12 mph86%29.50 "Hg15 mi
10:00 am27 °FBroken clouds.8 mph86%29.51 "Hg15 mi
9:00 am27 °FPartly sunny.8 mph86%29.52 "Hg15 mi
Weather by CustomWeather, © 2017

See weather overviewHow to use our weather pages